EW1186 Weather Reports


time (UTC)temp
C
wind
direction
speed
KPH
gust
KPH
rain 1hr
cm
rain 24hr
cm
rain mn
cm
humidity
%
barometer
mb
20260906104616 20 69 0.0 0.0 0.00 0.61 0.00 95 1011.2
20260906103051 20 69 0.0 0.0 0.00 0.61 0.00 95 1010.9
20260906101551 20 69 0.0 0.0 0.00 0.61 0.00 95 1010.6
20260906100051 20 69 0.0 0.0 0.00 0.61 0.00 95 1010.4
20260906094549 20 69 0.0 0.0 0.00 0.61 0.00 95 1010.3
20260906093058 20 69 0.0 0.0 0.00 0.61 0.00 94 1010.1
20260906091548 20 69 0.0 0.0 0.00 0.61 0.00 95 1010.0
20260906090049 20 69 0.0 0.0 0.00 0.61 0.00 95 1009.8
20260906084546 20 69 0.0 0.0 0.00 0.61 0.00 94 1009.9
20260906083045 20 69 0.0 0.0 0.00 0.61 0.00 95 1009.7
20260906081544 20 69 0.0 0.0 0.00 0.61 0.00 95 1009.5
20260906080043 20 69 0.0 0.0 0.00 0.61 0.00 94 1009.4
20260906074541 20 69 0.0 0.0 0.00 0.61 0.00 94 1009.4
20260906073040 21 69 0.0 0.0 0.00 0.61 0.00 94 1009.5
20260906071538 21 69 0.0 0.0 0.00 0.61 0.00 94 1009.6
20260906070039 21 69 0.0 0.0 0.00 0.61 0.00 94 1009.6
20260906064535 21 69 0.0 0.0 0.00 0.61 0.00 94 1009.8
20260906063034 21 69 0.0 0.0 0.00 0.61 0.00 94 1009.9
20260906061534 21 69 0.0 0.0 0.00 0.61 0.00 94 1010.1
20260906060033 21 69 0.0 0.0 0.00 0.61 0.00 94 1010.2
20260906054528 21 69 0.0 0.0 0.00 0.61 0.00 94 1010.3
20260906053028 21 69 0.0 0.0 0.00 0.61 0.00 94 1010.3
20260906051532 21 69 0.0 0.0 0.00 0.61 0.00 94 1010.3
20260906050027 21 69 0.0 1.6 0.00 0.61 0.00 93 1010.7
20260906044523 21 339 0.0 1.6 0.00 0.61 0.00 93 1010.8
20260906043022 21 339 0.0 0.0 0.00 0.61 0.00 93 1010.8
20260906041524 21 339 0.0 0.0 0.00 0.61 0.00 93 1010.8
20260906040019 21 339 0.0 0.0 0.00 0.61 0.00 93 1010.8
20260906034517 21 339 0.0 0.0 0.00 0.61 0.61 93 1010.9
20260906033016 21 339 0.0 0.0 0.00 0.61 0.61 93 1011.0
20260906031515 22 339 0.0 0.0 0.00 0.61 0.61 93 1010.9
20260906030014 22 339 0.0 0.0 0.00 0.61 0.61 93 1010.7
20260906024513 22 339 0.0 0.0 0.00 0.61 0.61 93 1010.6
20260906023019 22 339 0.0 0.0 0.00 0.61 0.61 93 1010.6
20260906021515 22 339 0.0 0.0 0.00 0.61 0.61 93 1010.5
20260906020012 22 339 0.0 0.0 0.00 0.61 0.61 92 1010.6
20260906014518 22 339 0.0 0.0 0.00 0.61 0.61 92 1010.4
20260906013010 22 339 0.0 0.0 0.00 0.61 0.61 92 1010.4
20260906011509 22 339 0.0 0.0 0.00 0.61 0.61 91 1010.3
20260906010008 23 339 0.0 0.0 0.00 0.61 0.61 91 1010.0
20260906004509 23 339 0.0 0.0 0.00 0.61 0.61 90 1010.0
20260906001506 23 339 0.0 0.0 0.00 0.61 0.61 89 1009.9
20260906000006 24 339 0.0 0.0 0.00 0.61 0.61 90 1009.8
20260905234504 25 339 0.0 0.0 0.00 0.61 0.61 90 1009.5
20260905233012 25 339 0.0 1.6 0.00 0.61 0.61 90 1009.3
20260905231504 25 339 0.0 1.6 0.00 0.61 0.61 90 1008.9
20260905230003 25 339 0.0 8.0 0.00 0.61 0.61 90 1009.0
20260905224503 25 5 0.0 3.2 0.00 0.61 0.61 91 1009.0
20260905223004 25 5 0.0 4.8 0.00 0.61 0.61 90 1008.9
20260905221501 25 35 0.0 1.6 0.00 0.61 0.61 90 1009.1
20260905220002 24 35 0.0 1.6 0.00 0.61 0.61 91 1009.3
20260905214600 24 36 0.0 1.6 0.00 0.61 0.61 92 1009.6
20260905213058 24 36 0.0 0.0 0.00 0.61 0.61 92 1009.4
20260905211602 24 36 0.0 4.8 0.00 0.61 0.61 92 1009.7
20260905210058 24 360 0.0 6.4 0.08 0.61 0.61 92 1009.9
20260905204556 23 344 0.0 1.6 0.15 0.61 0.61 92 1010.0
20260905203100 23 344 0.0 6.4 0.28 0.61 0.61 92 1009.7
20260905201555 23 348 0.0 6.4 0.46 0.61 0.61 90 1009.3
20260905200103 23 32 0.0 8.0 0.53 0.53 0.53 88 1009.0
20260905194552 23 89 0.0 1.6 0.46 0.46 0.46 86 1009.4
20260905193107 24 74 0.0 11.3 0.33 0.33 0.33 84 1010.3
20260905191551 25 304 1.6 14.5 0.15 0.15 0.15 81 1011.0
20260905190051 31 305 11.3 30.6 0.00 0.00 0.00 59 1012.1
20260905184549 35 303 3.2 11.3 0.00 0.00 0.00 52 1009.1
20260905183054 36 271 0.0 9.7 0.00 0.00 0.00 53 1008.7
20260905181547 37 286 3.2 12.9 0.00 0.00 0.00 53 1009.1
20260905180044 36 298 1.6 9.7 0.00 0.00 0.00 54 1009.5
20260905174540 36 333 1.6 11.3 0.00 0.00 0.00 56 1009.8
20260905173037 36 298 8.0 16.1 0.00 0.00 0.00 54 1010.3
20260905171537 36 309 4.8 12.9 0.00 0.00 0.00 56 1010.4
20260905170037 36 308 6.4 12.9 0.00 0.00 0.00 55 1010.5
20260905164532 36 38 4.8 9.7 0.00 0.00 0.00 56 1010.9
20260905163028 35 29 1.6 8.0 0.00 0.00 0.00 58 1011.0
20260905161526 35 304 6.4 14.5 0.00 0.00 0.00 59 1011.2
20260905160028 35 287 0.0 11.3 0.00 0.00 0.00 64 1011.3
20260905154519 35 333 1.6 4.8 0.00 0.00 0.00 60 1011.4
20260905153014 33 242 1.6 6.4 0.00 0.00 0.00 66 1011.5
20260905151511 33 221 0.0 4.8 0.00 0.00 0.00 66 1011.7
20260905150007 33 320 3.2 9.7 0.00 0.00 0.00 67 1011.7
20260905144502 32 333 0.0 3.2 0.00 0.00 0.00 70 1011.7
20260905143059 31 334 0.0 6.4 0.00 0.00 0.00 72 1011.7
20260905141555 31 335 0.0 4.8 0.00 0.00 0.00 75 1011.7
20260905140051 30 335 0.0 8.0 0.00 0.00 0.00 77 1011.8
20260905134548 28 342 1.6 4.8 0.00 0.00 0.00 82 1011.9
20260905133041 26 319 0.0 3.2 0.00 0.00 0.00 90 1012.0
20260905131538 25 324 0.0 3.2 0.00 0.00 0.00 95 1012.1
20260905130035 24 324 0.0 3.2 0.00 0.00 0.00 95 1012.2
20260905124529 23 324 0.0 1.6 0.00 0.00 0.00 95 1012.3
20260905123028 23 324 0.0 1.6 0.00 0.00 0.00 94 1012.2
20260905121528 22 324 0.0 0.0 0.00 0.00 0.00 94 1012.3
20260905120027 22 324 0.0 0.0 0.00 0.00 0.00 93 1012.3
20260905114525 22 324 0.0 0.0 0.00 0.00 0.00 93 1012.2
20260905113023 22 324 0.0 0.0 0.00 0.00 0.00 93 1011.8
20260905111521 22 324 0.0 0.0 0.00 0.00 0.00 93 1011.5